Theta_e
356 358 357 357 357 356 356 353 353 349 346 343 344 342 336 324 316 324 329 320 320 315 317 314 311 317 325 325 326 326 327 327 327 329 327 327 326 321 322 318 323 325 330
357 357 358 357 357 356 356 352 350 346 345 345 343 338 326 316 322 316 328 325 320 320 317 321 324 324 325 326 326 320 322 324 328 325 327 324 320 319 320 319 320 323 328
357 358 357 357 358 354 351 349 347 346 345 345 341 328 317 323 328 329 325 312 317 318 322 324 325 325 325 324 324 324 324 323 323 323 323 320 320 320 319 318 319 322 328
357 358 357 358 356 354 352 349 345 344 345 343 331 317 317 317 327 325 312 313 317 321 321 323 323 324 325 324 322 322 319 324 320 320 320 320 320 319 319 318 317 318 325
358 359 359 357 354 351 347 346 342 344 343 332 318 315 317 318 323 322 321 318 319 321 321 320 311 309 309 319 322 319 321 322 320 320 320 320 321 321 319 318 316 317 322
359 359 358 353 350 348 346 345 344 341 334 319 316 317 318 321 320 316 322 321 320 320 320 314 309 311 309 309 309 308 309 320 320 321 318 319 319 318 319 318 318 317 317
358 357 354 351 348 348 347 346 343 334 324 314 320 322 323 322 319 311 317 320 320 320 320 320 318 316 319 320 311 315 314 311 314 318 318 317 316 316 317 318 318 319 317
357 354 350 348 350 348 346 341 336 327 318 317 323 324 325 324 316 312 317 321 321 320 320 320 320 319 317 319 320 319 318 318 315 315 315 314 313 311 310 314 315 316 318
354 352 349 350 350 348 340 337 333 324 314 315 323 323 325 324 311 312 313 323 321 320 320 320 319 319 318 310 318 319 318 318 316 315 316 315 315 315 313 313 316 315 316
352 350 348 347 348 342 339 336 332 322 312 320 322 323 324 321 310 309 309 323 323 323 322 321 313 315 318 311 312 319 318 318 318 317 316 317 317 317 315 315 314 315 315
351 350 348 347 346 341 339 335 329 317 310 318 321 322 321 320 311 311 311 323 322 322 322 321 321 318 310 311 312 313 317 317 317 316 318 319 317 317 316 316 315 314 314
350 348 347 345 344 341 338 333 323 313 315 319 320 321 320 321 313 312 313 320 320 320 320 318 319 315 313 312 313 313 313 312 315 316 317 318 317 317 317 316 315 312 311
349 346 344 343 341 339 336 330 318 315 319 320 320 320 320 321 321 314 313 314 315 317 320 320 319 318 314 314 315 317 316 315 316 317 317 317 316 317 316 315 315 315 314
348 343 341 341 338 337 332 329 322 320 322 321 321 320 321 322 323 323 317 316 315 315 315 318 318 316 317 318 318 317 318 318 319 318 317 316 317 316 317 316 316 315 313
346 343 341 338 336 332 331 331 325 323 321 320 320 320 321 322 323 324 325 323 322 318 318 322 322 322 322 322 320 320 320 319 320 320 318 318 318 317 316 315 315 315 314
343 340 339 336 334 334 332 327 322 322 319 320 319 321 321 322 323 323 321 322 322 322 323 322 322 322 321 322 320 319 319 319 318 318 318 317 316 316 316 316 315 315 313
340 337 336 335 335 334 331 328 323 319 320 319 320 321 324 322 322 320 319 316 318 318 316 319 320 320 321 322 322 320 319 318 317 319 318 318 317 317 316 315 314 314 313
339 337 337 336 336 335 332 328 323 321 320 319 318 321 322 323 319 318 315 315 315 317 318 318 319 319 320 322 322 320 319 317 316 317 317 317 317 315 315 315 314 314 312
338 338 337 336 337 335 330 325 323 321 320 318 318 318 319 316 316 315 316 317 319 320 322 321 323 321 322 320 320 319 318 317 317 316 316 316 315 315 314 314 313 311 310
341 339 338 337 335 330 327 325 322 320 320 320 321 321 319 315 316 317 317 318 319 321 322 321 321 322 320 321 319 318 317 317 317 316 316 315 314 314 313 312 311 310 309
340 338 337 334 333 329 326 323 321 320 322 322 322 322 321 319 320 320 321 322 322 323 323 322 322 321 321 320 319 318 317 316 315 314 313 312 312 312 311 310 310 310 310
339 337 335 334 331 327 322 321 321 321 322 323 322 322 321 322 323 322 322 323 323 322 324 323 321 320 320 319 318 316 315 314 313 312 311 311 311 311 310 309 310 309 309
337 334 332 329 327 321 320 320 319 322 322 322 322 323 322 322 321 321 322 322 322 321 321 322 320 319 318 317 315 314 313 312 311 311 310 309 309 310 310 310 310 310 309
335 332 329 328 326 329 325 318 321 321 322 322 322 323 323 323 322 322 320 320 319 319 318 317 316 316 315 314 313 312 311 311 310 310 309 309 309 309 309 309 309 309 309
334 331 330 328 329 321 321 321 322 322 322 322 322 322 322 322 321 319 318 318 318 317 315 313 313 314 314 313 312 312 311 310 309 307 305 305 306 308 309 309 309 308 308
333 328 330 324 319 319 321 322 322 322 322 321 321 322 322 322 320 319 319 318 317 314 313 313 313 313 313 312 312 311 310 309 307 301 299 300 304 306 308 308 308 308 307
Wind_Speed
27 24 23 22 22 20 19 16 15 17 13 11 11 9 6 5 4 9 11 5 3 1 2 2 2 6 3 2 2 2 2 2 5 3 2 9 6 9 8 7 5 1 10
28 26 24 23 22 23 21 19 19 17 13 12 11 9 8 6 5 6 8 5 4 4 3 4 4 1 5 4 2 3 1 3 1 2 6 3 8 8 10 10 7 2 6
30 27 26 24 25 23 21 20 20 17 15 13 12 10 8 7 8 7 8 7 6 5 5 4 4 4 3 2 3 3 1 2 3 2 2 4 5 9 8 9 8 8 3
31 29 29 26 24 21 20 19 18 16 15 14 12 10 9 9 9 9 8 9 8 6 6 5 4 4 3 4 3 4 2 3 4 2 3 4 6 8 9 9 7 6 4
34 31 29 26 26 25 22 21 18 17 16 14 12 11 10 10 10 11 8 8 8 7 6 5 3 3 2 6 6 2 4 2 1 3 3 4 6 7 10 8 8 7 4
35 30 28 30 26 25 23 21 19 17 16 13 12 12 12 10 17 13 10 8 8 7 6 5 4 3 4 2 1 3 4 6 3 2 3 4 6 7 8 7 8 7 4
34 32 33 31 29 27 24 21 20 18 15 14 14 14 14 18 15 12 12 7 7 7 7 4 6 2 4 3 3 5 7 7 8 5 5 6 7 8 7 8 7 5 5
35 37 36 34 32 29 24 25 23 19 16 14 15 15 15 13 16 14 14 9 8 7 6 5 4 2 3 6 3 2 2 4 3 3 5 6 9 10 12 7 8 8 9
41 40 38 35 31 29 28 27 24 20 17 17 16 16 15 14 16 14 14 9 8 7 7 5 3 4 7 4 4 4 4 5 10 9 10 11 12 10 14 9 5 5 6
43 42 37 33 31 28 29 28 24 19 17 16 15 15 15 12 15 14 14 10 10 8 8 7 4 6 11 8 7 4 7 6 7 8 14 12 10 7 8 8 7 7 7
42 38 34 34 31 27 28 27 24 22 20 19 17 16 15 14 15 13 13 14 10 9 10 7 7 7 6 9 8 8 9 12 10 12 15 13 9 9 9 3 11 7 9
40 36 36 32 29 31 32 30 25 23 19 22 20 16 15 15 16 14 14 15 14 10 7 6 7 6 4 5 7 7 9 10 11 12 13 12 11 8 7 7 17 12 10
36 34 35 33 32 32 30 26 23 21 18 20 20 18 17 16 16 17 14 14 14 14 8 10 9 10 10 9 8 9 11 14 12 14 18 16 16 15 16 14 16 10 14
35 31 30 31 28 26 27 24 21 20 20 19 18 18 17 17 16 16 15 15 15 14 12 15 16 14 13 12 16 17 14 13 11 13 18 17 16 18 15 13 11 12 13
33 32 32 26 26 22 21 22 19 18 20 19 18 17 17 18 17 17 14 14 13 13 13 12 14 18 14 15 16 20 23 18 15 16 14 17 16 13 16 14 15 14 14
31 32 27 26 23 21 20 19 21 19 23 23 21 19 18 20 20 22 21 18 15 14 12 14 14 16 18 18 14 16 17 20 19 16 16 20 19 18 16 16 15 14 17
30 23 23 22 24 23 22 21 22 28 27 30 27 26 19 22 17 18 17 20 20 19 20 18 18 19 21 20 18 18 20 20 16 15 14 16 21 17 18 20 17 17 16
24 21 21 28 25 23 23 21 19 20 23 25 31 30 26 20 18 21 18 17 19 19 22 21 23 24 22 20 21 21 18 18 16 16 18 17 15 17 16 19 18 17 16
23 22 25 28 24 22 21 20 18 18 17 17 19 28 27 23 21 20 19 19 18 18 20 24 20 20 17 20 19 17 17 19 18 18 19 20 20 21 18 17 17 16 17
25 25 29 27 22 21 19 18 17 17 16 18 18 17 19 23 22 21 23 24 23 18 18 20 23 18 19 15 16 18 19 18 17 19 17 16 14 15 17 16 16 17 17
29 30 36 26 21 19 17 17 17 16 16 17 16 17 19 24 20 21 20 21 22 18 18 17 17 19 16 18 19 21 18 15 18 17 16 17 16 17 16 16 16 16 16
30 35 31 24 22 20 17 14 14 15 15 15 15 17 18 16 17 14 13 15 16 21 15 16 16 19 19 19 18 18 18 18 16 16 17 17 16 16 16 16 16 16 16
27 32 33 31 30 27 22 13 14 16 16 16 16 18 18 16 16 16 15 18 15 14 14 13 15 16 18 17 18 16 15 15 14 14 15 15 16 16 17 17 17 17 17
34 34 37 33 27 16 13 16 23 22 19 16 15 16 15 15 11 12 13 13 14 14 14 15 15 16 16 13 14 13 13 13 11 10 11 13 16 17 18 19 19 19 19
35 33 33 24 18 18 20 23 20 19 17 16 16 15 12 12 13 11 11 11 13 14 15 15 15 15 15 15 15 14 18 20 21 23 22 17 17 17 18 19 20 20 20
33 32 22 16 15 20 20 17 18 17 16 14 15 12 14 12 9 10 11 12 13 14 14 15 15 15 15 15 15 18 19 22 23 20 16 15 14 15 16 17 18 19 20
Wind_Direction
192 193 194 198 201 200 202 200 195 211 219 231 236 236 244 257 229 176 190 231 162 164 60 55 57 127 147 52 53 30 22 308 274 306 283 329 359 341 340 343 330 51 292
192 193 193 193 196 199 199 196 204 214 222 227 229 232 242 229 199 169 138 181 140 121 105 84 91 62 57 84 9 47 84 26 272 305 309 328 346 1 359 3 11 276 274
190 193 192 191 196 197 197 204 207 213 216 221 226 228 218 187 167 167 178 158 144 133 118 107 90 67 82 83 115 98 28 29 333 313 342 345 355 354 3 359 7 3 355
191 191 192 188 192 185 189 197 203 208 217 220 220 218 198 178 167 172 174 155 140 135 122 113 98 91 84 57 43 37 30 83 355 353 335 342 348 353 351 357 0 360 309
190 187 189 185 185 187 197 200 203 210 216 216 212 199 185 173 169 168 161 157 149 137 126 103 118 109 111 153 101 174 99 40 350 330 326 336 345 351 349 353 351 348 307
184 182 184 186 185 198 194 203 209 207 210 209 199 189 173 161 202 180 157 163 158 147 146 160 93 74 75 106 90 59 63 109 30 50 6 355 348 341 333 342 344 358 332
179 184 187 188 190 195 197 205 202 204 209 203 190 183 168 204 212 192 168 170 160 164 159 146 110 250 72 316 24 38 38 45 72 50 26 360 349 331 326 329 330 338 324
183 191 194 190 191 196 200 198 196 201 204 193 188 187 181 216 204 186 164 174 181 174 180 170 173 199 231 176 223 296 298 322 61 359 348 344 341 354 347 296 314 326 318
191 192 191 188 193 197 196 192 194 196 194 189 190 188 185 209 193 194 184 185 201 193 200 192 210 213 253 211 165 252 281 293 277 299 332 345 349 359 0 357 335 311 313
195 191 189 186 194 196 196 197 197 200 193 177 188 190 187 206 199 199 196 185 211 218 216 220 235 217 237 225 221 248 266 288 285 296 308 303 313 316 333 13 344 311 304
193 188 185 192 198 205 200 201 200 188 182 173 187 189 191 200 196 193 185 179 216 221 219 229 247 277 260 234 242 256 265 271 280 288 286 281 291 300 304 302 337 324 299
191 191 190 195 193 195 202 198 189 178 185 176 180 187 191 197 197 192 184 179 201 195 206 222 222 272 258 245 259 271 277 276 281 279 281 276 284 284 300 300 312 320 310
189 191 190 189 188 196 197 193 186 184 177 181 183 187 192 198 205 202 198 200 204 204 195 226 227 249 262 269 270 266 278 279 272 274 280 278 281 282 289 291 292 292 314
198 189 187 188 194 193 190 193 190 185 183 191 191 193 195 203 209 215 213 214 220 225 222 219 237 250 258 255 262 269 261 257 257 279 288 286 288 285 283 290 278 282 293
195 188 190 185 188 189 184 193 186 193 191 192 196 197 200 207 213 210 206 207 216 226 225 239 248 247 265 264 272 278 278 275 265 267 275 284 277 268 269 282 271 275 281
190 191 183 192 185 185 185 191 183 199 196 195 196 195 207 214 208 207 214 216 212 214 225 247 259 259 267 257 272 281 283 279 276 267 271 277 271 276 270 276 282 272 284
193 184 186 189 184 190 192 194 193 198 204 199 198 196 198 207 213 207 221 216 223 232 244 250 259 269 273 271 273 270 270 280 287 277 273 267 270 267 270 270 270 271 271
199 210 206 188 190 195 197 198 199 202 203 208 205 204 206 208 216 219 216 219 234 245 255 256 261 259 271 269 270 260 275 288 287 280 273 261 275 273 270 269 267 271 277
200 208 198 187 192 199 197 195 199 200 199 204 203 209 212 214 210 210 218 231 243 254 260 266 263 270 260 279 271 265 277 283 274 278 280 280 277 271 267 270 270 272 273
199 199 190 193 193 192 192 197 200 200 199 196 198 204 206 208 213 222 235 244 257 265 265 269 273 263 275 254 260 273 278 285 276 269 270 267 274 271 269 268 267 267 268
212 193 189 181 185 189 193 195 199 200 202 202 199 203 200 203 215 229 235 248 258 233 257 266 265 277 268 265 275 273 271 271 270 273 274 273 273 269 264 263 264 265 265
204 194 180 182 179 179 184 182 199 195 204 209 203 207 211 207 232 241 254 261 252 271 260 270 266 265 269 270 281 280 282 277 273 273 272 271 265 263 263 263 265 265 266
191 180 179 181 179 171 174 180 187 212 210 213 213 201 206 223 232 241 255 262 273 278 276 270 272 273 280 278 276 274 267 264 264 266 267 267 265 261 258 261 264 264 266
184 186 182 188 182 176 194 188 210 207 215 211 219 213 209 209 220 248 261 269 275 276 275 270 269 272 272 271 263 264 269 256 250 258 268 267 262 261 261 262 264 266 268
196 189 188 186 181 174 197 198 207 209 212 218 220 223 229 245 252 253 271 271 276 278 279 275 272 270 268 267 257 251 261 265 267 268 266 267 263 262 262 263 265 268 271
186 177 173 174 158 192 199 203 206 207 208 214 220 225 228 236 244 264 273 277 276 281 281 279 272 266 264 262 259 254 260 271 287 288 274 264 260 262 264 265 267 269 271